This demonstration page uses our WeatherBlox Daily Observations layout. Learn more.

Left ArrowRight Arrow

39.29038, -76.61219

Hourly Observations for December 7, 2020

Temp ( °F °C ) Dew Point ( °F °C ) Humidity (%) Winds ( mph kmh ) Pressure ( in mb ) Visibility ( mi km ) Precip ( " mm )
12:54 am 00:54 Mostly Cloudy 32 0 21 -6.1 64 64 Calm 29.92 1013 10 16 0.00 0.00
1:54 am 01:54 Mostly Cloudy 30 -1.1 21 -6.1 69 69 WSW 5 7 29.93 1013 10 16 0.00 0.00
2:54 am 02:54 Mostly Cloudy 31 -0.6 21 -6.1 67 67 SSW 5 7 29.92 1013 10 16 0.00 0.00
3:54 am 03:54 Partly Cloudy 30 -1.1 21 -6.1 69 69 Calm 29.90 1013 10 16 0.00 0.00
4:54 am 04:54 Mostly Cloudy 28 -2.2 22 -5.6 78 78 SW 3 6 29.90 1013 10 16 0.00 0.00
5:54 am 05:54 Mostly Cloudy 30 -1.1 22 -5.6 72 72 Calm 29.90 1013 10 16 0.00 0.00
6:54 am 06:54 Mostly Cloudy 31 -0.6 23 -5 72 72 Calm 29.90 1013 10 16 0.00 0.00
7:54 am 07:54 Mostly Cloudy 32 0 22 -5.6 66 66 Calm 29.89 1012 10 16 0.00 0.00
8:54 am 08:54 Cloudy 34 1.1 22 -5.6 61 61 NW 3 6 29.88 1012 10 16 0.00 0.00
9:54 am 09:54 Mostly Cloudy 35 1.7 20 -6.7 54 54 NNW 7 11 29.88 1012 10 16 0.00 0.00
10:54 am 10:54 Mostly Cloudy 37 2.8 21 -6.1 52 52 N 3 6 29.86 1011 10 16 0.00 0.00
11:54 am 11:54 Mostly Cloudy 37 2.8 20 -6.7 50 50 WNW 6 9 29.82 1010 10 16 0.00 0.00
12:54 pm 12:54 Mostly Cloudy 39 3.9 20 -6.7 46 46 VRB 3 6 29.78 1009 10 16 0.00 0.00
1:54 pm 13:54 Partly Cloudy 41 5 21 -6.1 45 45 N 9 15 29.77 1008 10 16 0.00 0.00
2:54 pm 14:54 Mostly Sunny 41 5 21 -6.1 45 45 WNW 10 17 29.76 1008 10 16 0.00 0.00
3:54 pm 15:54 Mostly Sunny 39 3.9 20 -6.7 46 46 WNW 8 13 29.76 1008 10 16 0.00 0.00
4:54 pm 16:54 Mostly Clear 36 2.2 21 -6.1 55 55 WNW 6 9 29.77 1008 10 16 0.00 0.00
5:54 pm 17:54 Mostly Clear 34 1.1 21 -6.1 59 59 WNW 7 11 29.78 1008 10 16 0.00 0.00
6:54 pm 18:54 Mostly Clear 35 1.7 20 -6.7 54 54 NW 10 17 29.79 1009 10 16 0.00 0.00
7:54 pm 19:54 Mostly Clear 34 1.1 20 -6.7 56 56 WNW 9 15 29.79 1009 10 16 0.00 0.00
8:54 pm 20:54 Mostly Clear 32 0 20 -6.7 61 61 WNW 9 15 29.79 1009 10 16 0.00 0.00
9:54 pm 21:54 Mostly Clear 32 0 19 -7.2 59 59 WNW 10 17 29.80 1009 10 16 0.00 0.00
10:54 pm 22:54 Mostly Clear 32 0 18 -7.8 56 56 WNW 10 17 29.79 1009 10 16 0.00 0.00
11:54 pm 23:54 Clear 32 0 18 -7.8 56 56 WNW 8 13 29.79 1009 10 16 0.00 0.00

Powered by AerisWeather